Weather History for KFQD - March, 2014

Change the Weather History Date:

Monday, March 31, 2014

  Actual Average (KAVL) Record (KAVL)
Temperature  
Mean Temperature 56 °F 51 °F  
Max Temperature 74 °F 63 °F 81 °F (1963)
Min Temperature 38 °F 39 °F 20 °F (1964)
Degree Days  
Heating Degree Days 9 14  
Month to date heating degree days 554  
Since 1 July heating degree days 3772  
Cooling Degree Days 0 0  
Month to date cooling degree days 1  
Year to date cooling degree days 1  
Growing Degree Days 6 (Base 50)    
Moisture  
Dew Point 21 °F    
Average Humidity 27    
Maximum Humidity 64    
Minimum Humidity 13    
Precipitation  
Precipitation 0.00 in 0.12 in 1.90 in (1870)
Month to date precipitation 3.83  
Year to date precipitation 11.26  
Snow  
Snow 0.00 in 0.00 in 2.40 in (1972)
Month to date snowfall 1.9  
Since 1 July snowfall 9.2  
Snow Depth -    
Sea Level Pressure  
Sea Level Pressure 30.10 in    
Wind  
Wind Speed 6 mph (SW)    
Max Wind Speed 14 mph    
Max Gust Speed 21 mph    
Visibility 10 miles    
Events      
T = Trace of Precipitation, MM = Missing Value Source: NWS Daily Summary

Daily Weather History Graph

Daily Weather History Graph

Search for Another Location

Airport or City:

Trip Planner

Search our weather history database for the weather conditions in past years. The results will help you decide how hot, cold, wet, or windy it might be!

Date:

Astronomy

Mar. 31, 2014 Rise Set
Actual Time 7:15 AM EDT 7:48 PM EDT
Civil Twilight 6:50 AM EDT 8:14 PM EDT
Nautical Twilight 6:20 AM EDT 8:44 PM EDT
Astronomical Twilight 5:49 AM EDT 9:15 PM EDT
Moon 7:40 AM EDT (3/31) 9:02 PM EDT (3/31)
Length of Visible Light 13h 23m
Length of Day
12h 32m
New Moon, 1% of the Moon is Illuminated
Mar 31
New Moon
Apr 7
First Quarter
Apr 15
Full
Apr 22
Last Quarter
Apr 29
New

Hourly Weather History & Observations

Time (EDT) Temp. Windchill Dew Point Humidity Pressure Visibility Wind Dir Wind Speed Gust Speed Precip Events Conditions
12:15 AM 44.8 °F 43.3 °F 24.8 °F 46% 30.07 in 10.0 mi NW 3.5 mph - N/A   Clear
12:35 AM 46.2 °F 42.7 °F 23.7 °F 41% 30.07 in 10.0 mi NNW 6.9 mph - N/A   Clear
12:55 AM 38.8 °F 36.5 °F 27.7 °F 64% 30.08 in 10.0 mi South 3.5 mph - N/A   Clear
1:15 AM 41.9 °F 36.9 °F 25.7 °F 53% 30.08 in 10.0 mi NW 8.1 mph - N/A   Clear
1:35 AM 40.8 °F 36.9 °F 25.5 °F 55% 30.08 in 10.0 mi WNW 5.8 mph - N/A   Clear
1:55 AM 38.3 °F 34.8 °F 26.8 °F 63% 30.09 in 10.0 mi WSW 4.6 mph - N/A   Clear
2:15 AM 42.6 °F 37.2 °F 24.1 °F 48% 30.09 in 10.0 mi West 9.2 mph - N/A   Clear
2:35 AM 43.5 °F 38.9 °F 23.0 °F 44% 30.09 in 10.0 mi NW 8.1 mph - N/A   Clear
2:55 AM 41.4 °F 34.0 °F 24.4 °F 51% 30.09 in 10.0 mi NW 13.8 mph - N/A   Clear
3:15 AM 45.5 °F 39.6 °F 23.0 °F 41% 30.07 in 10.0 mi NNW 12.7 mph 18.4 mph N/A   Clear
3:35 AM 46.6 °F - 22.6 °F 39% 30.05 in 10.0 mi North 12.7 mph 20.7 mph N/A   Clear
3:55 AM 46.4 °F 40.4 °F 22.5 °F 39% 30.04 in 10.0 mi NNW 13.8 mph 19.6 mph N/A   Clear
4:15 AM 46.6 °F - 22.3 °F 38% 30.05 in 10.0 mi NNW 12.7 mph 19.6 mph N/A   Clear
4:35 AM 47.3 °F - 21.4 °F 36% 30.04 in 10.0 mi NNW 8.1 mph 20.7 mph N/A   Clear
4:55 AM 47.8 °F - 18.0 °F 31% 30.05 in 10.0 mi North 3.5 mph - N/A   Clear
5:15 AM 47.5 °F - 16.2 °F 29% 30.06 in 10.0 mi North 4.6 mph - N/A   Clear
5:35 AM 47.8 °F - 14.2 °F 26% 30.06 in 10.0 mi North 3.5 mph - N/A   Clear
5:55 AM 48.9 °F - 11.1 °F 22% 30.07 in 10.0 mi North 6.9 mph - N/A   Clear
6:15 AM 49.3 °F - 10.6 °F 21% 30.07 in 10.0 mi NNE 3.5 mph - N/A   Clear
6:35 AM 48.0 °F - 12.0 °F 24% 30.07 in 10.0 mi North 3.5 mph - N/A   Clear
6:55 AM 49.1 °F - 10.6 °F 21% 30.08 in 10.0 mi North 5.8 mph - N/A   Clear
7:15 AM 46.2 °F 43.3 °F 13.8 °F 27% 30.09 in 10.0 mi West 5.8 mph - N/A   Clear
7:35 AM 44.8 °F 41.6 °F 14.2 °F 29% 30.10 in 10.0 mi West 5.8 mph - N/A   Clear
7:55 AM 45.3 °F - 14.2 °F 29% 30.11 in 10.0 mi Calm Calm - N/A   Clear
8:15 AM 45.9 °F 44.6 °F 14.2 °F 28% 30.12 in 10.0 mi West 3.5 mph - N/A   Clear
8:35 AM 48.7 °F - 18.0 °F 29% 30.13 in 10.0 mi West 4.6 mph - N/A   Clear
8:55 AM 50.0 °F - 19.4 °F 30% 30.13 in 10.0 mi Calm Calm - N/A   Clear
9:15 AM 51.4 °F - 20.7 °F 30% 30.13 in 10.0 mi Calm Calm - N/A   Clear
9:35 AM 52.5 °F - 21.9 °F 30% 30.14 in 10.0 mi Calm Calm - N/A   Clear
9:55 AM 54.7 °F - 21.0 °F 27% 30.14 in 10.0 mi SSW 6.9 mph - N/A   Clear
10:15 AM 56.5 °F - 22.3 °F 27% 30.15 in 10.0 mi Calm Calm - N/A   Clear
10:35 AM 57.9 °F - 21.9 °F 25% 30.15 in 10.0 mi Calm Calm - N/A   Clear
10:55 AM 60.4 °F - 22.1 °F 23% 30.16 in 10.0 mi Calm Calm - N/A   Clear
11:35 AM 63.5 °F - 21.0 °F 20% 30.15 in 10.0 mi Calm Calm - N/A   Clear
11:55 AM 64.6 °F - 21.0 °F 19% 30.15 in 10.0 mi Calm Calm - N/A   Clear
12:15 PM 67.1 °F - 21.0 °F 17% 30.15 in 10.0 mi SSW 4.6 mph - N/A   Clear
12:35 PM 67.3 °F - 21.0 °F 17% 30.15 in 10.0 mi South 4.6 mph - N/A   Clear
12:55 PM 68.4 °F - 21.6 °F 17% 30.14 in 10.0 mi South 5.8 mph - N/A   Clear
1:15 PM 70.2 °F - 23.7 °F 17% 30.14 in 10.0 mi SSW 4.6 mph - N/A   Clear
1:35 PM 69.8 °F - 20.7 °F 16% 30.13 in 10.0 mi SE 4.6 mph - N/A   Clear
1:55 PM 70.9 °F - 23.0 °F 17% 30.12 in 10.0 mi SSE 5.8 mph - N/A   Clear
2:15 PM 71.6 °F - 22.3 °F 16% 30.11 in 10.0 mi South 9.2 mph - N/A   Clear
2:35 PM 72.0 °F - 23.2 °F 16% 30.11 in 10.0 mi SSE 11.5 mph 17.3 mph N/A   Clear
2:55 PM 72.9 °F - 22.8 °F 15% 30.10 in 10.0 mi SSW 5.8 mph 18.4 mph N/A   Clear
3:15 PM 71.6 °F - 21.2 °F 15% 30.10 in 10.0 mi SSE 9.2 mph - N/A   Clear
3:35 PM 72.7 °F - 22.3 °F 15% 30.09 in 10.0 mi SSW 8.1 mph - N/A   Clear
3:55 PM 73.4 °F - 22.6 °F 15% 30.09 in 10.0 mi SSE 9.2 mph - N/A   Clear
4:15 PM 73.9 °F - 22.6 °F 15% 30.08 in 10.0 mi SE 13.8 mph 18.4 mph N/A   Clear
4:35 PM 74.7 °F - 22.3 °F 14% 30.08 in 10.0 mi South 11.5 mph 17.3 mph N/A   Clear
4:55 PM 74.5 °F - 20.7 °F 13% 30.07 in 10.0 mi South 10.4 mph 19.6 mph N/A   Clear
5:15 PM 73.8 °F - 19.6 °F 13% 30.07 in 10.0 mi South 11.5 mph 17.3 mph N/A   Clear
5:35 PM 73.9 °F - 20.3 °F 13% 30.06 in 10.0 mi South 12.7 mph 19.6 mph N/A   Clear
5:55 PM 72.9 °F - 19.4 °F 13% 30.06 in 10.0 mi SSW 9.2 mph - N/A   Clear
6:15 PM 72.9 °F - 20.1 °F 14% 30.07 in 10.0 mi South 12.7 mph - N/A   Clear
6:35 PM 72.0 °F - 20.7 °F 14% 30.07 in 10.0 mi SSW 12.7 mph - N/A   Clear
6:55 PM 69.1 °F - 21.4 °F 16% 30.07 in 10.0 mi South 11.5 mph 17.3 mph N/A   Clear
7:15 PM 68.7 °F - 21.7 °F 17% 30.07 in 10.0 mi South 9.2 mph - N/A   Clear
7:35 PM 68.0 °F - 21.0 °F 17% 30.07 in 10.0 mi South 8.1 mph - N/A   Clear
7:55 PM 66.2 °F - 21.9 °F 19% 30.08 in 10.0 mi South 10.4 mph - N/A   Clear
8:15 PM 65.8 °F - 21.7 °F 19% 30.08 in 10.0 mi South 9.2 mph - N/A   Clear
8:35 PM 65.3 °F - 21.2 °F 19% 30.09 in 10.0 mi SSW 8.1 mph - N/A   Clear
8:55 PM 64.9 °F - 21.4 °F 19% 30.09 in 10.0 mi South 8.1 mph - N/A   Clear
9:15 PM 64.0 °F - 22.1 °F 20% 30.09 in 10.0 mi South 5.8 mph - N/A   Clear
9:35 PM 64.4 °F - 21.4 °F 19% 30.10 in 10.0 mi SSW 6.9 mph - N/A   Clear
9:55 PM 62.2 °F - 23.2 °F 22% 30.10 in 10.0 mi SSW 6.9 mph - N/A   Clear
10:15 PM 61.7 °F - 24.3 °F 24% 30.11 in 10.0 mi Calm Calm - N/A   Clear
10:35 PM 59.7 °F - 23.9 °F 25% 30.11 in 10.0 mi Calm Calm - N/A   Clear
10:55 PM 55.0 °F - 25.9 °F 33% 30.11 in 10.0 mi Calm Calm - N/A   Clear
11:15 PM 55.8 °F - 26.6 °F 33% 30.11 in 10.0 mi Calm Calm - N/A   Clear
11:35 PM 53.2 °F - 28.4 °F 38% 30.11 in 10.0 mi Calm Calm - N/A   Clear
11:55 PM 53.6 °F - 27.9 °F 37% 30.12 in 10.0 mi Calm Calm - N/A   Clear